User: anonymous   Login
Location: Rumah Long Bangan
(2.8362°N, 113.7519°E)
Time: 20:10:16
(UTC+00:00)
Language:

Hubble Space Telescope - Orbit

View from above orbital plane
View from above orbital plane
View from above satellite
View from above satellite

Ground track
Ground track

The orbit data is extracted from the following two-line orbital elements,

1 20580U 90037B   22016.91285301  .00001604  00000-0  85463-4 0  9995
2 20580  28.4705  92.4095 0002520 196.9082 326.0767 15.09946790543289
Epoch (UTC): 16 January 2022 21:54:30
Eccentricity: 0.0002520
inclination: 28.4705°
perigee height: 534 km
apogee height: 538 km
right ascension of ascending node: 92.4095°
argument of perigee: 196.9082°
revolutions per day: 15.09946790
mean anomaly at epoch: 326.0767°
orbit number at epoch: 54328

The dashed part of the orbit path shows where the satellite is in the earth's shadow,  

DLR